Regional Weather Roundup
Issued by NWS Columbia, SC

Home | Current Version | Previous Version | Text Only | Print | Product List | Glossary On
Versions: 1 2 3 4 5 6 7 8 9 10 11 12 13 14 15 16 17 18 19 20 21 22 23 24 25 26 27 28 29 30 31 32 33 34 35 36 37 38 39 40 41 42 43 44 45 46 47 48 49 50
000
ASUS42 KCAE 281410
RWRCAE
REGIONAL WEATHER ROUNDUP
NATIONAL WEATHER SERVICE COLUMBIA SC
1000 AM EDT TUE JUL 28 2015

NOTE: "FAIR" INDICATES FEW OR NO CLOUDS BELOW 12,000 FEET WITH NO
SIGNIFICANT WEATHER AND/OR OBSTRUCTIONS TO VISIBILITY.

NOT ALL STATIONS ARE QUALITY CONTROLLED BY THE NATIONAL
WEATHER SERVICE. USE DATA WITH CAUTION...ESPECIALLY
DEWPOINT OBSERVATIONS.

SCZ001>056-GAZ040-063>065-077-281500-
...UPSTATE SOUTH CAROLINA...

CITY           SKY/WX    TMP DP  RH WIND       PRES   REMARKS
ANDERSON       MOSUNNY   81  72  74 VRB3      30.04S
SPARTANBURG      N/A     82  73  74 CALM      30.04R
CLEMSON        MOSUNNY   83  72  69 SE5       30.06R
GREENVILLE     MOSUNNY   84  70  62 CALM      30.05S
GREENWOOD      MOSUNNY   83  74  74 CALM      30.04F
GREER          SUNNY     83  71  67 CALM      30.03S
ROCK HILL      PTSUNNY   81  74  79 SE3       30.04F
CHESTER        CLOUDY    82  77  83 SE3       30.05S
LAURENS        MOSUNNY   81  79  94 CALM      30.03F


...CENTRAL SOUTH CAROLINA...

CITY           SKY/WX    TMP DP  RH WIND       PRES   REMARKS
COLUMBIA APT   PTSUNNY   84  74  71 SE6       30.01S
COLUMBIA OWENS CLOUDY    83  74  74 VRB3      30.03R
DARLINGTON     SUNNY     82  72  69 E6        30.04R
FLORENCE       SUNNY     83  72  69 E6        30.02R
MCENTIRE ANGB  PTSUNNY   84  74  72 E5        30.02R
ORANGEBURG     MOSUNNY   83  74  74 SE3       30.02R
SUMTER SHAW    PTSUNNY   85  71  64 N5        30.00R
NEWBERRY       PTSUNNY   75  72  88 CALM      30.06S
AIKEN          FAIR      82  70  65 CALM      30.06S
BARNWELL       PTSUNNY   84  75  74 CALM      30.02S
MANNING        FAIR      81  72  74 CALM      30.01S
CAMDEN         FAIR      82  73  74 CALM      30.03S
LANCASTER      MOSUNNY   82  79  89 CALM      30.04S
WINNSBORO      SUNNY     81  73  78 CALM      30.03S


...EASTERN AND COASTAL SOUTH CAROLINA...

CITY           SKY/WX    TMP DP  RH WIND       PRES   REMARKS
MYRTLE BEACH   MOSUNNY   84  72  65 E12       30.02R
N MYRTLE BCH   SUNNY     85  72  65 NE8       30.01R
CONWAY         FAIR      82  72  69 NE5       30.01R
MARION         FAIR      82  70  65 CALM      30.02S
HARTSVILLE     FAIR      82  72  69 NE3       30.02S
FLORENCE       SUNNY     83  72  69 E6        30.02R
DARLINGTON     SUNNY     82  72  69 E6        30.04R
CHARLESTON APT MOSUNNY   84  75  74 NE8       29.99S
MOUNT PLEASANT FAIR      84  77  79 NE5       29.99S
WALTERBORO     MOSUNNY   86  73  66 E3        30.01S
BEAUFORT       MOSUNNY   85  76  74 N6        30.00R


...EASTERN GEORGIA...

CITY           SKY/WX    TMP DP  RH WIND       PRES   REMARKS
AUGUSTA BUSH F MOSUNNY   83  74  74 SE5       30.01R
AUGUSTA DANIEL SUNNY     84  75  74 S3        30.03S
THOMSON        SUNNY     87  78  74 SW3       30.06S HX  99
WASHINGTON     FAIR      86  77  74 SW3       30.02F HX  97
CLAXTON        FAIR      82  77  83 E6        30.00S
SYLVANIA       MOSUNNY   83  79  85 CALM      30.02S
STATESBORO     MOSUNNY   83  83 100 NE5       30.01R HX  98
SAVANNAH       PTSUNNY   84  75  74 N7        30.00R


...SOUTHERN NORTH CAROLINA...

CITY           SKY/WX    TMP DP  RH WIND       PRES   REMARKS
CHARLOTTE      CLOUDY    83  72  69 S8        30.04F
MONROE         MOSUNNY   83  74  74 VRB3      30.04S
WADESBORO      PTSUNNY   82  75  78 SW3       30.03S
ROCKINGHAM     MOSUNNY   81  73  78 CALM      30.03S
RUTHERFORDTON  MOSUNNY   79  73  81 CALM      30.06S
ASHEVILLE      MOSUNNY   77  69  76 NW6       30.11F

$$


USA.gov is the U.S. government's official web portal to all federal, state and local government web resources and services.